This is the latest recevied weather packets stored in our database for station/object NK7E. If no packets are shown the sender has not sent any weather packets the latest 10 day(s).
| Time | Temp. | Humidity | Pressure | Rain* | Wind** | Luminosity | Snow |
|---|---|---|---|---|---|---|---|
| 1777842317 | 29.44° C | 26% | 1011.5 hPa | 0 mm | - | 473 W/m² | - |
| 1777841717 | 28.89° C | 27% | 1011.5 hPa | 0 mm | - | 666 W/m² | - |
| 1777841117 | 28.33° C | 27% | 1011.7 hPa | 0 mm | - | 443 W/m² | - |
| 1777840517 | 28.33° C | 26% | 1011.9 hPa | 0 mm | - | 425 W/m² | - |
| 1777839917 | 28.33° C | 26% | 1012.1 hPa | 0 mm | - | 423 W/m² | - |
| 1777839317 | 28.33° C | 25% | 1012.1 hPa | 0 mm | - | 400 W/m² | - |
| 1777838717 | 28.33° C | 26% | 1012.3 hPa | 0 mm | - | 409 W/m² | - |
| 1777838117 | 28.33° C | 26% | 1012.4 hPa | 0 mm | - | 445 W/m² | - |
| 1777837517 | 27.78° C | 28% | 1012.6 hPa | 0 mm | - | 433 W/m² | - |
| 1777836917 | 27.78° C | 29% | 1012.7 hPa | 0 mm | - | 403 W/m² | - |
| 1777836317 | 27.78° C | 29% | 1012.8 hPa | 0 mm | - | 397 W/m² | - |
| 1777835717 | 27.22° C | 30% | 1012.9 hPa | 0 mm | - | 349 W/m² | - |
| 1777835117 | 27.22° C | 31% | 1013.1 hPa | 0 mm | - | 432 W/m² | - |
| 1777834517 | 27.22° C | 31% | 1013.2 hPa | 0 mm | - | 415 W/m² | - |
| 1777833917 | 27.22° C | 31% | 1013.4 hPa | 0 mm | - | 378 W/m² | - |
| 1777833317 | 26.67° C | 31% | 1013.6 hPa | 0 mm | - | 362 W/m² | - |
| 1777832717 | 26.67° C | 31% | 1013.7 hPa | 0 mm | - | 348 W/m² | - |
| 1777832117 | 26.67° C | 32% | 1013.8 hPa | 0 mm | - | 359 W/m² | - |
| 1777831517 | 26.67° C | 32% | 1014 hPa | 0 mm | - | 349 W/m² | - |
| 1777830917 | 26.67° C | 32% | 1014 hPa | 0 mm | - | 323 W/m² | - |
| 1777830317 | 26.67° C | 33% | 1014.3 hPa | 0 mm | - | 371 W/m² | - |
| 1777829717 | 26.67° C | 32% | 1014.3 hPa | 0 mm | - | 434 W/m² | - |
| 1777829117 | 26.67° C | 33% | 1014.4 hPa | 0 mm | - | 403 W/m² | - |
| 1777828517 | 26.11° C | 33% | 1014.5 hPa | 0 mm | - | 404 W/m² | - |
| 1777827917 | 26.11° C | 33% | 1014.6 hPa | 0 mm | - | 545 W/m² | - |
* Rain latest hour (hover to see other rain measurements)
** Current wind speed in m/s (hover to see current wind gust speed)